Location: *
(42.3442°N, 9.2072°E)
Time: 22:11:06
(UTC+00:00)

Cosmos 1850 Rocket - Pass Details

Date: 09 April 2020
Orbit: 754 x 786 km, 74.0° (Epoch: 25 May)

Event Time Altitude Azimuth Distance (km) Brightness Sun altitude
Exits shadow 20:24:22 43° 205° (SSW) 1,054 4.5 -25.1°
Maximum altitude 20:26:07 84° 290° (WNW) 764 3.9 -25.3°
Drops below altitude 10° 20:31:19 10° 19° (NNE) 2,287 6.7 -26.0°
Sets 20:33:41 0° 20° (NNE) 3,217 7.5 -26.4°
